Theta_e
287 287 286 285 283 282 281 282 282 283 283 283 284 285 285 285 286 285 286 286 287 288 287 287 287 287 287 286 286 285 285 285 285 285 285 284 284 284 283 283 283 283 282 282 281 280 280 280 280 280 279 279 279 279 278 278 278 278 277 277 277 277
288 287 286 286 284 283 283 282 282 282 283 283 283 283 283 282 283 283 285 285 286 287 286 286 287 287 286 286 285 285 285 285 284 284 284 284 284 284 283 283 283 283 282 282 281 280 280 279 279 279 279 279 279 278 278 278 278 277 277 277 277 277
288 288 288 288 287 286 285 283 282 282 282 282 282 283 282 282 282 283 284 283 285 285 286 286 286 286 286 285 285 285 285 284 284 284 284 283 283 283 283 283 283 282 282 282 281 280 280 279 279 279 279 279 278 278 278 277 277 277 277 277 276 277
288 288 289 289 289 289 288 287 285 284 283 283 283 282 282 282 283 282 282 283 284 284 285 286 285 285 285 285 285 285 285 284 284 284 283 283 283 283 283 283 282 282 282 281 281 280 280 280 279 279 279 279 278 278 278 277 277 277 276 276 276 276
287 287 287 287 288 288 288 288 288 287 286 284 282 282 283 282 283 282 283 283 284 284 284 285 285 285 285 285 285 285 285 285 284 284 283 283 283 283 283 283 282 282 282 281 281 280 280 280 279 279 279 279 278 278 277 277 277 277 276 276 276 276
286 287 286 287 287 287 287 288 288 288 287 286 283 283 283 283 283 283 283 283 284 284 284 284 284 283 284 284 285 285 285 285 285 284 284 283 283 282 283 283 282 282 282 281 281 281 280 280 279 279 279 279 278 278 278 277 277 277 277 277 277 276
285 285 286 286 286 287 287 287 287 287 287 287 286 285 284 283 283 283 283 283 283 284 284 284 284 284 284 284 285 285 285 285 285 284 283 283 282 282 282 282 282 282 281 281 281 281 281 280 280 279 278 279 279 278 278 277 277 277 277 277 277 278
284 285 285 286 286 286 287 287 286 287 287 287 287 287 287 286 285 283 283 283 283 284 283 284 284 284 284 285 285 285 285 285 284 284 283 283 283 282 283 282 282 282 281 281 281 281 281 281 280 279 279 278 278 278 278 277 277 277 277 277 277 277
283 284 285 285 286 286 286 287 286 286 286 286 286 287 287 286 286 285 284 284 283 284 284 284 284 284 285 285 285 285 285 284 284 283 283 283 283 282 282 282 282 282 282 282 282 281 281 281 280 280 279 279 278 278 277 277 277 277 277 277 276 276
283 283 284 285 285 286 286 287 286 286 286 286 286 286 286 287 287 286 286 285 284 284 284 284 284 285 285 285 285 285 285 284 284 284 284 283 283 283 282 282 282 282 282 282 282 282 281 281 280 280 279 279 278 278 278 277 277 277 277 276 276 276
282 283 283 284 285 285 285 286 286 286 286 286 286 286 286 286 286 286 286 285 285 285 285 285 285 285 285 285 285 284 284 284 284 284 283 283 283 283 282 282 282 282 282 282 282 282 281 280 280 280 279 278 278 278 277 277 277 277 276 276 275 275
282 282 283 283 284 284 285 285 285 285 285 286 286 285 286 286 286 286 286 286 286 286 285 285 285 285 285 284 284 284 284 284 284 283 283 283 282 282 282 281 282 282 282 282 281 281 281 280 280 281 283 282 279 278 278 277 277 277 276 275 274 274
282 283 283 283 284 284 285 285 285 285 285 285 285 285 286 286 286 286 285 285 286 286 286 285 285 285 284 284 284 284 284 283 283 283 282 282 282 281 281 281 281 282 282 281 281 280 280 280 280 283 284 284 284 279 278 277 276 276 276 275 274 274
282 283 283 284 284 285 285 285 285 284 284 285 285 285 286 286 285 285 285 285 285 285 285 285 285 284 284 284 283 283 283 283 282 282 281 281 280 281 281 281 281 281 281 281 281 280 280 280 282 284 285 285 285 282 279 278 277 276 276 275 275 274
283 283 284 284 285 285 285 286 285 284 285 284 285 285 285 285 284 284 284 285 285 284 284 283 283 283 283 283 283 283 282 281 281 281 280 280 280 280 280 280 280 280 281 281 280 280 280 280 283 285 285 286 286 285 281 278 277 276 276 275 275 274
283 284 284 284 285 285 285 285 285 285 285 285 286 285 284 284 284 283 283 284 284 283 283 282 282 282 283 283 282 281 281 281 281 281 281 281 280 280 280 280 280 280 280 280 280 280 280 280 283 285 286 286 286 285 282 277 277 276 276 275 274 273
283 283 284 284 284 285 285 284 284 285 285 285 285 285 285 284 284 283 283 283 283 283 282 281 281 281 281 281 281 280 280 280 280 281 280 280 280 280 280 280 280 280 280 280 280 280 280 279 283 285 286 286 286 286 283 277 277 276 275 274 274 274
282 283 283 284 284 284 283 283 284 284 283 285 285 284 284 284 284 284 283 282 282 282 282 280 280 280 279 279 278 278 280 280 280 280 280 280 280 280 280 280 280 280 280 280 280 280 279 279 283 285 286 286 287 286 280 276 276 275 275 274 273 273
283 283 283 283 283 282 282 283 283 282 283 283 283 283 283 283 283 283 283 282 282 281 281 280 279 279 279 278 277 278 278 279 279 279 279 279 279 279 279 279 280 280 280 280 279 279 279 278 282 285 286 286 286 285 278 276 275 274 274 273 274 273
282 282 282 281 282 282 282 282 281 281 281 281 281 280 281 281 282 283 282 281 281 281 280 279 278 278 278 278 277 277 278 277 278 278 278 278 278 278 278 279 279 279 279 279 279 279 278 277 280 284 285 286 286 284 276 275 274 274 273 272 273 273
281 281 281 280 280 280 281 280 279 279 278 278 278 278 279 280 281 282 281 281 281 280 279 278 277 277 277 277 277 276 276 276 277 276 275 277 277 278 278 278 278 277 278 278 278 280 279 277 279 284 285 286 287 283 275 275 274 273 272 272 272 273
280 279 279 279 279 279 279 278 278 277 277 276 277 277 277 279 280 281 281 280 280 280 280 279 277 277 276 276 276 275 275 274 273 273 274 275 276 276 276 276 277 276 276 277 277 277 278 277 278 282 285 286 287 284 276 275 274 272 272 272 271 271
278 277 278 278 278 277 277 276 276 275 275 275 275 275 277 278 278 278 277 278 280 281 280 279 277 277 276 276 275 275 274 273 274 272 272 273 272 272 273 274 274 275 275 275 276 276 277 277 277 280 285 286 287 284 278 274 274 273 272 272 271 272
276 276 277 277 277 276 275 275 274 273 273 273 273 275 276 276 276 275 275 277 280 280 280 279 278 277 277 276 274 273 274 272 273 273 273 273 272 273 273 273 273 273 273 273 274 275 275 277 278 279 284 286 286 284 280 275 274 274 273 272 272 272
274 274 274 275 275 274 274 273 272 272 272 272 273 274 275 274 273 273 274 277 279 278 278 278 278 277 276 276 275 274 274 272 272 272 273 273 272 273 273 273 272 272 271 271 272 272 274 274 276 280 281 285 286 284 281 279 277 278 274 273 272 272
273 272 273 273 273 273 272 272 271 271 271 271 273 273 273 272 271 272 273 275 275 275 275 276 277 277 276 275 275 275 274 273 272 272 272 271 271 271 271 270 270 270 269 269 270 270 271 272 273 278 281 283 286 285 282 281 280 280 275 274 273 274
270 270 270 271 271 271 271 271 270 270 269 270 271 271 270 270 270 270 271 272 272 272 273 274 275 276 276 275 275 274 274 273 272 272 272 271 271 271 271 270 270 270 270 270 270 270 270 271 272 274 278 282 284 286 283 282 281 280 279 274 273 274
268 268 268 268 269 269 269 269 268 267 268 269 269 269 268 268 268 269 270 270 270 269 270 271 272 275 276 275 274 274 275 274 273 273 272 272 272 272 272 271 271 270 271 271 271 270 270 271 272 273 275 280 282 284 283 282 281 281 279 276 274 276
267 267 267 267 268 268 268 267 267 267 268 267 267 267 267 267 267 267 267 266 266 267 268 269 270 272 275 275 274 274 274 274 273 273 272 272 272 272 272 272 271 271 271 270 271 270 270 270 271 272 274 276 279 282 282 281 280 281 280 276 274 276
266 266 265 265 267 267 266 266 266 266 266 265 265 265 265 265 265 264 264 264 264 265 266 267 270 271 272 274 274 273 273 273 273 273 272 272 272 272 272 272 271 271 271 271 271 270 269 269 270 271 272 275 277 280 282 280 279 278 276 274 274 274
265 265 265 265 266 265 265 264 264 264 264 264 264 264 263 262 263 263 262 262 263 263 266 267 269 270 272 273 273 273 274 274 273 273 273 274 275 274 274 273 273 273 273 273 272 270 268 269 269 271 275 275 279 280 281 279 278 278 275 275 277 274
264 264 264 264 264 264 263 263 263 263 263 262 262 262 261 261 261 260 261 261 262 264 265 267 269 270 272 273 273 273 273 275 278 276 274 274 276 278 278 278 274 274 274 273 273 273 270 270 271 275 277 278 280 282 283 282 281 280 276 277 279 275
263 263 262 262 263 262 262 261 261 261 261 261 261 261 260 260 260 260 260 261 262 264 265 267 268 269 271 272 272 273 272 273 274 278 280 278 277 277 278 279 279 279 278 274 272 274 277 275 275 276 277 279 280 282 283 283 282 280 279 279 275 272
261 261 261 261 260 260 260 259 260 260 260 260 260 260 260 259 259 259 259 260 261 263 264 265 266 268 270 271 272 272 272 272 272 273 277 279 279 279 279 279 280 280 279 279 277 274 273 276 277 277 278 279 280 281 283 283 282 280 280 279 277 270
260 260 259 259 259 258 258 258 258 259 259 259 259 259 259 259 259 258 259 259 260 261 262 263 264 266 268 270 271 271 272 271 271 271 271 274 278 280 280 279 280 280 280 280 279 278 276 276 277 278 278 279 280 281 282 283 282 281 281 279 272 268
259 258 258 257 257 257 257 257 258 258 258 259 259 259 258 258 258 258 259 259 260 261 262 263 264 266 267 270 271 271 272 272 272 271 272 271 271 273 277 280 280 280 280 280 280 279 279 278 278 278 279 279 280 281 282 282 280 281 281 277 270 268
257 257 257 257 257 257 257 257 258 258 258 258 258 258 258 258 258 259 260 262 262 262 263 264 265 265 265 268 270 271 271 271 272 272 271 271 271 271 271 272 275 278 280 278 279 280 280 279 279 279 279 280 280 281 282 282 278 277 276 274 270 268
256 256 256 257 256 256 256 257 258 258 259 258 258 258 258 259 259 260 260 261 262 263 262 262 262 262 263 263 264 268 272 272 272 271 271 271 271 271 271 272 273 274 277 280 280 280 280 280 279 279 280 280 280 281 282 277 275 275 274 270 268 267
Wind_Speed
14 14 14 11 8 8 8 9 7 5 4 4 4 7 6 6 6 6 7 8 9 9 11 12 12 11 10 9 8 8 10 12 11 11 11 9 11 11 11 12 12 13 13 12 12 11 11 10 11 10 10 10 10 9 9 8 8 8 8 7 7 7
16 14 15 16 14 10 8 7 7 8 8 7 7 7 5 4 5 4 7 8 8 9 8 10 11 11 11 10 9 10 12 11 11 10 9 12 9 11 12 13 14 14 14 12 12 12 11 12 11 11 11 10 10 10 9 9 10 9 9 8 6 6
17 18 16 15 13 11 11 9 8 7 7 7 7 8 7 6 5 4 6 4 7 7 11 11 10 12 10 9 11 12 12 10 10 10 9 6 11 10 12 12 13 14 14 14 14 14 14 14 13 11 11 11 11 10 10 10 11 11 8 8 8 6
18 19 19 18 18 18 18 14 12 11 9 8 8 8 7 7 7 4 4 5 6 9 11 10 7 8 8 11 11 13 12 12 13 13 10 13 11 12 13 13 12 13 14 14 14 14 14 14 14 14 13 14 13 12 10 11 12 11 10 10 10 9
14 14 15 16 17 17 17 16 15 14 14 11 7 7 9 6 8 6 5 6 7 9 7 7 9 7 9 11 12 13 14 13 12 11 14 13 12 12 13 14 13 14 14 14 14 15 15 16 15 14 14 14 16 16 13 13 14 14 14 13 13 12
14 17 19 18 17 16 16 15 14 13 12 12 9 9 10 9 9 9 8 8 9 9 8 10 8 6 9 11 13 14 14 13 11 11 13 13 12 14 13 14 15 14 15 15 15 16 16 15 15 15 15 16 16 15 16 14 14 14 14 14 13 13
18 16 15 15 14 13 13 13 13 12 12 11 12 9 8 8 8 8 9 9 11 11 10 11 10 11 13 14 13 15 14 12 12 11 14 12 13 14 13 14 15 16 16 17 18 18 17 17 16 16 15 14 14 15 15 15 14 14 14 14 14 13
14 15 15 13 13 13 13 12 11 11 10 11 9 11 11 10 8 8 9 9 11 12 12 12 10 13 15 16 16 16 14 11 10 10 9 11 14 13 14 15 14 16 18 18 17 17 17 16 16 17 17 17 15 14 14 14 14 14 14 14 13 14
20 17 16 15 14 14 13 13 14 14 13 13 12 13 12 10 10 10 9 10 10 12 12 11 12 13 14 15 15 13 11 12 12 11 12 10 11 13 13 13 14 13 15 17 16 17 18 17 17 16 16 16 16 16 16 16 16 15 14 13 14 13
16 18 18 18 17 17 16 14 13 13 13 13 13 13 13 12 12 12 11 11 11 11 12 11 12 13 14 14 13 12 12 12 12 14 13 12 14 14 15 15 16 14 13 14 15 16 15 15 15 15 16 16 17 17 17 17 17 17 15 14 13 13
13 15 16 16 16 18 17 16 15 15 14 12 13 13 14 13 13 14 13 12 11 12 12 11 11 11 12 12 12 12 13 13 12 12 11 12 13 12 13 12 12 12 14 13 14 14 13 15 16 16 16 17 17 16 17 17 17 16 16 15 14 13
14 13 14 15 16 17 17 16 16 15 15 15 16 16 14 14 13 13 14 14 13 12 11 12 11 11 11 12 13 13 13 12 12 12 13 14 14 12 11 11 12 13 14 15 14 14 13 14 13 14 22 20 17 17 14 13 14 15 15 15 14 13
14 14 15 15 15 16 15 15 15 15 14 14 15 15 15 13 13 13 12 14 13 14 13 12 11 11 12 12 12 11 11 12 10 11 12 12 12 13 12 12 14 15 14 14 14 15 14 13 12 18 23 25 24 17 15 15 14 14 14 14 15 15
16 15 16 16 16 16 15 16 16 15 15 15 15 15 13 14 14 15 14 14 15 15 14 12 12 11 12 11 11 11 11 10 10 11 11 11 12 11 10 13 15 13 12 12 14 15 14 13 13 21 23 24 24 20 15 14 13 14 14 14 14 13
14 15 15 14 15 16 16 15 15 15 15 17 16 15 14 13 13 14 14 14 14 14 13 13 12 11 11 11 11 10 8 9 10 11 10 12 11 10 13 14 12 13 13 12 14 14 13 11 15 23 26 26 27 26 19 12 13 14 14 14 14 14
12 13 14 14 14 14 14 14 14 14 13 13 13 13 14 14 14 12 13 13 13 14 13 13 12 12 11 10 9 8 8 8 11 10 9 8 8 11 12 11 14 12 13 14 13 12 11 12 15 23 24 24 25 25 20 12 14 13 14 14 15 12
12 12 12 13 13 13 13 14 14 14 15 14 15 13 13 13 13 12 11 13 13 13 13 14 13 13 12 9 7 7 7 8 8 8 8 8 11 12 13 14 14 14 14 13 13 12 12 12 17 23 25 25 25 26 20 12 11 10 10 9 8 8
12 12 13 12 12 12 12 13 13 14 16 15 13 14 13 13 13 12 11 13 13 13 13 13 13 13 12 10 7 6 8 7 7 8 7 7 8 8 8 9 10 12 13 13 13 14 14 11 20 23 25 26 24 25 13 11 11 11 10 11 8 6
10 11 11 12 12 13 13 13 13 15 16 15 14 14 14 13 13 13 13 13 13 14 14 13 13 13 12 10 9 8 8 7 7 6 4 6 7 8 10 10 11 11 12 14 14 15 13 10 18 24 25 25 28 22 10 11 10 10 11 11 13 9
9 9 10 11 12 12 12 12 13 14 15 15 15 14 14 13 13 12 12 13 14 14 13 12 11 12 11 10 10 10 8 6 4 5 4 7 8 9 9 8 9 9 10 12 13 14 12 11 16 25 26 29 30 20 13 12 11 11 10 9 6 7
10 10 9 9 11 11 10 12 14 14 14 14 14 14 14 14 13 13 14 14 14 14 13 12 11 10 10 10 10 9 9 7 6 4 3 6 6 7 6 7 8 8 8 10 11 11 13 10 14 24 26 28 30 20 12 12 11 11 10 11 7 6
11 11 10 11 12 10 10 11 12 14 15 15 14 14 14 13 13 14 14 15 14 13 12 11 11 11 10 11 10 8 8 6 4 5 5 5 5 5 5 6 7 8 8 7 9 10 11 11 11 18 27 29 31 25 14 12 13 13 13 11 12 11
10 12 12 11 11 10 8 9 10 12 13 14 15 16 14 14 14 15 16 16 15 13 13 11 10 12 11 9 10 8 6 5 5 5 5 6 5 4 5 6 6 7 6 6 7 8 9 9 11 16 27 28 30 29 21 12 13 12 12 13 13 11
11 12 13 11 11 11 9 9 11 12 12 13 15 15 14 14 14 15 17 18 14 13 13 13 12 10 10 9 8 8 7 5 5 6 6 6 5 6 7 5 5 5 5 4 6 7 9 9 14 12 21 27 29 29 26 14 13 13 13 13 13 12
13 13 14 13 11 10 10 10 13 14 12 14 15 13 13 14 15 17 18 17 14 14 15 14 13 12 9 9 7 8 9 6 5 5 5 6 6 6 6 6 5 5 5 4 5 5 6 7 9 16 15 25 28 29 27 22 15 21 14 14 14 14
11 13 14 15 14 11 10 10 13 14 15 17 13 11 13 14 16 17 19 17 15 16 16 16 15 12 9 9 8 8 9 7 6 6 6 6 6 6 6 5 5 5 6 7 6 6 6 7 8 13 18 18 28 27 27 25 22 22 13 11 11 11
12 13 15 16 16 14 11 9 11 16 20 16 10 12 13 15 17 17 19 18 17 17 16 16 16 14 11 9 8 9 9 8 7 7 6 6 6 6 7 7 6 8 8 8 9 8 7 7 8 9 14 19 22 29 27 27 24 23 20 11 7 7
11 13 16 18 17 15 10 9 9 15 18 15 13 13 15 16 17 18 17 17 18 18 17 20 19 17 13 11 8 10 9 9 9 8 7 7 8 8 8 8 8 8 8 9 8 8 8 8 8 9 10 13 16 20 27 27 25 24 23 16 11 16
14 16 16 17 19 16 11 13 13 14 14 14 12 13 15 17 17 17 17 17 17 18 19 17 16 15 13 11 9 9 9 9 8 8 8 9 9 9 9 9 9 9 9 9 9 8 8 8 9 9 10 10 11 11 16 19 19 24 22 13 11 14
15 16 16 16 19 14 14 13 15 14 14 13 13 13 14 16 17 17 18 19 17 16 16 18 19 20 14 12 10 10 10 9 10 10 11 11 12 11 11 11 11 12 12 11 9 8 8 8 9 10 11 12 11 11 10 13 13 14 13 13 13 12
16 15 17 18 17 14 14 15 13 12 12 12 12 13 15 17 18 18 20 19 15 15 15 14 15 14 14 12 10 10 11 11 11 12 12 11 10 11 12 12 12 12 11 10 10 11 12 10 12 14 13 14 17 16 13 13 13 13 11 15 19 13
14 17 17 19 14 14 15 17 16 14 11 10 11 11 14 16 18 18 18 16 15 14 12 12 11 13 13 12 12 11 11 14 19 14 12 11 14 19 17 13 11 11 10 11 11 12 15 16 13 10 19 21 21 23 20 17 19 17 14 22 29 17
15 14 18 17 17 15 17 17 18 16 12 8 9 10 13 16 15 16 16 16 14 15 15 14 13 12 12 12 12 11 12 11 11 23 27 22 14 15 20 21 20 16 15 13 10 11 18 11 10 17 21 23 24 25 25 21 24 24 26 29 20 14
18 17 18 16 15 17 16 18 18 16 11 11 9 10 14 16 14 15 17 16 16 17 16 14 14 14 13 12 12 11 12 11 12 10 17 25 24 22 21 22 24 23 21 21 16 10 9 17 18 19 23 26 26 27 28 24 26 27 31 31 27 14
16 16 15 14 17 17 19 18 19 14 11 10 11 11 15 16 16 17 18 17 18 17 18 17 15 14 13 13 12 12 11 12 11 12 10 10 19 23 23 22 24 25 25 23 23 22 16 15 18 21 24 27 28 28 29 27 27 29 32 31 17 13
15 15 17 16 18 20 19 20 18 13 12 11 12 13 15 16 17 18 16 15 17 17 16 14 14 14 14 12 12 12 11 11 11 11 11 9 6 9 16 22 25 25 26 26 25 23 23 21 22 23 25 28 29 30 30 27 22 29 34 27 15 12
17 17 18 19 20 19 19 19 18 15 12 14 13 16 16 16 16 16 19 31 25 17 16 13 10 12 14 14 13 11 12 13 11 10 11 10 10 9 10 9 12 19 26 20 19 23 25 24 25 25 25 27 28 29 30 28 17 19 19 17 13 13
19 17 18 18 20 18 20 21 17 15 16 14 16 16 18 17 16 15 15 16 17 15 11 14 14 13 14 14 16 16 13 11 11 11 10 10 10 10 10 9 9 9 15 28 25 25 24 25 25 24 26 27 30 30 31 18 15 15 15 13 12 12
Wind_Direction
358 358 355 350 337 331 327 324 324 319 305 290 250 231 227 219 216 214 214 206 209 211 213 212 213 211 209 205 196 190 197 201 200 198 194 177 178 176 172 174 178 181 183 182 181 178 181 179 179 175 175 176 175 175 174 166 167 171 175 175 169 167
8 9 6 4 356 346 342 340 339 333 323 319 311 310 313 293 254 238 233 227 222 218 214 221 217 214 208 202 195 200 206 205 201 198 192 195 179 182 176 179 180 181 180 182 179 178 178 178 179 177 177 176 182 173 173 172 169 176 176 172 173 164
6 8 10 12 10 11 10 8 350 326 324 314 313 302 290 278 275 267 265 271 254 242 231 223 216 218 212 208 203 203 205 202 201 203 200 165 192 178 182 181 182 181 182 180 182 180 180 179 178 179 175 179 179 177 175 168 175 178 175 166 170 170
5 7 9 10 11 8 8 7 4 356 341 323 315 314 307 303 290 268 271 270 273 265 254 244 237 229 221 219 213 214 210 204 199 195 181 193 188 181 184 183 182 183 181 182 184 183 183 183 182 180 178 179 179 178 176 176 177 178 174 171 177 174
7 7 10 10 6 3 3 5 7 3 356 346 332 318 301 291 283 275 257 247 241 243 256 275 268 261 235 224 222 222 216 210 204 191 194 193 187 186 184 183 182 182 183 184 184 184 186 186 185 183 182 184 182 180 181 180 179 180 178 181 182 178
4 9 7 5 4 2 360 357 358 0 359 350 337 327 308 297 285 281 270 259 252 246 239 236 231 243 248 249 242 232 222 214 209 199 202 198 187 187 188 183 183 180 185 186 186 188 188 187 187 185 187 186 184 183 183 180 184 186 185 183 180 178
7 4 0 360 356 355 356 356 354 355 355 353 349 336 317 305 292 276 268 264 262 255 244 241 226 225 227 229 232 240 239 226 215 204 206 194 196 194 187 190 184 184 184 187 189 189 189 189 186 184 186 189 188 186 181 182 184 186 186 185 184 181
356 358 357 355 354 351 349 350 349 349 351 350 347 346 343 334 318 295 283 272 263 260 249 245 236 233 231 228 231 231 228 230 233 226 219 206 203 194 195 194 192 189 189 190 189 189 189 185 187 189 188 187 186 185 184 182 184 186 186 186 185 183
354 349 348 349 348 349 348 348 347 349 348 349 351 348 342 337 333 320 303 287 273 268 260 251 243 238 237 235 233 230 222 220 214 211 216 213 212 205 203 199 196 202 196 192 187 189 186 187 189 189 189 188 186 185 184 183 185 186 186 187 185 184
345 345 344 344 345 344 345 346 346 345 345 343 344 344 342 340 338 334 325 311 296 281 274 262 251 244 241 239 236 230 225 218 213 213 208 200 208 208 205 202 201 197 197 199 195 192 186 185 187 191 191 190 187 186 189 186 185 184 185 183 183 183
340 337 339 338 339 341 341 340 341 342 341 343 343 343 342 339 338 336 335 328 316 300 286 274 263 256 252 247 241 234 227 221 216 212 206 206 211 209 208 205 200 198 198 197 197 194 190 190 191 190 189 189 190 190 190 189 186 183 181 180 182 182
334 334 334 336 338 338 338 338 339 340 340 340 341 341 341 341 337 336 334 334 329 317 300 283 274 266 257 249 242 238 231 224 217 208 206 208 209 208 203 199 200 201 201 198 196 193 194 200 198 192 189 187 187 186 186 185 188 185 183 179 177 179
331 332 335 336 337 335 335 333 333 333 334 338 338 338 337 337 334 335 334 332 332 331 326 311 290 276 266 256 247 242 235 227 219 212 210 208 202 203 199 195 199 203 201 200 197 197 200 200 199 192 191 190 185 181 182 183 186 186 183 182 179 178
333 335 334 335 334 334 335 335 333 332 334 336 335 335 334 335 336 336 336 336 336 337 334 326 311 294 278 266 254 245 235 227 218 215 210 204 202 201 192 200 204 201 197 199 201 203 203 204 192 188 192 191 188 184 183 183 182 183 185 184 182 180
328 328 329 331 333 332 331 331 329 331 333 333 330 331 333 335 334 333 332 335 336 333 332 326 318 303 290 275 262 253 238 225 221 218 209 207 202 189 198 204 194 201 199 197 202 206 204 206 195 193 192 192 190 186 180 185 183 183 187 183 183 178
321 324 325 325 326 325 323 327 326 324 327 323 322 327 327 331 330 331 328 332 335 334 331 328 321 311 299 288 273 257 240 227 224 220 213 205 191 197 201 197 199 197 196 198 200 204 203 204 198 197 196 194 191 187 180 185 183 185 186 182 162 145
318 316 321 322 322 322 323 324 326 326 326 327 323 323 324 324 324 324 328 330 330 333 332 330 325 316 308 299 283 267 250 236 235 222 212 202 200 199 200 197 198 198 196 195 194 196 201 203 194 196 195 194 191 188 179 180 182 183 182 151 144 156
314 313 315 317 316 318 322 321 325 326 321 320 317 318 321 321 320 320 327 330 330 330 328 327 322 317 311 305 295 275 261 251 235 225 215 210 213 213 207 209 204 199 198 196 192 197 202 196 191 194 194 192 190 186 177 177 177 178 175 174 159 143
301 305 311 313 315 317 320 322 327 323 318 317 316 317 317 319 318 321 327 326 327 326 324 322 319 315 311 306 296 277 265 258 249 242 220 217 217 210 208 208 203 202 199 197 197 198 198 187 191 193 192 193 193 189 175 176 177 178 177 166 174 160
294 303 308 310 311 312 316 321 324 320 313 313 315 316 316 316 316 319 323 322 323 320 317 314 311 308 304 302 290 278 273 264 262 244 217 216 216 215 215 206 205 206 203 202 201 199 193 188 190 193 193 195 193 181 171 173 176 178 174 130 136 147
300 302 302 300 300 306 316 320 320 317 311 310 312 311 309 311 314 321 321 318 316 312 311 309 306 302 296 289 280 270 265 254 242 241 216 227 227 227 217 208 209 207 203 205 200 191 192 187 189 194 195 194 195 183 164 169 174 172 175 172 156 155
305 301 300 300 298 307 317 319 315 311 309 308 310 308 308 312 319 319 317 312 310 307 305 306 304 299 293 286 280 269 256 252 241 226 209 224 221 225 214 214 213 208 207 198 195 196 194 186 189 197 196 196 196 180 165 170 174 179 174 171 171 168
299 298 298 296 299 306 312 312 307 302 304 307 308 305 309 313 319 319 316 310 304 305 305 304 300 295 290 278 275 271 259 240 227 218 208 211 216 202 212 210 213 208 208 196 199 195 196 189 187 199 199 197 197 183 168 177 181 174 168 173 174 179
299 298 295 295 302 306 308 308 301 296 300 302 297 301 312 316 318 317 312 303 300 304 305 303 301 292 284 283 276 269 255 246 222 212 209 204 194 201 209 208 203 208 203 200 199 199 198 191 192 197 203 200 199 183 173 170 184 173 168 175 183 178
303 300 299 299 300 301 302 305 298 297 297 293 294 309 313 317 316 314 308 302 304 307 306 304 300 296 290 278 268 259 260 243 221 215 200 197 197 201 205 203 200 194 203 200 209 206 196 192 193 201 204 203 202 186 180 174 174 182 179 179 181 183
292 297 299 299 298 299 299 302 299 297 296 291 306 314 314 315 313 310 305 301 302 306 306 304 299 292 281 269 262 253 252 243 226 215 204 193 195 201 199 205 195 196 199 200 209 212 202 198 189 206 209 207 207 190 184 179 180 183 183 185 186 180
295 296 294 293 294 295 298 298 297 298 295 297 318 312 312 311 309 305 300 301 304 304 303 302 299 291 278 265 248 248 244 237 222 217 208 190 200 200 202 204 192 206 209 205 207 203 203 201 201 203 212 213 214 196 185 185 181 185 180 178 171 166
290 290 290 293 291 291 293 291 290 290 290 305 314 312 311 307 302 299 298 300 302 301 301 300 295 290 278 263 244 240 238 233 223 222 207 195 202 199 206 206 202 212 213 215 210 206 198 196 196 206 206 215 217 207 189 184 180 184 184 170 170 169
298 294 293 293 292 295 296 294 291 286 294 301 307 308 305 301 299 297 296 294 295 298 297 293 291 290 285 264 253 241 239 232 228 225 220 206 200 201 205 207 205 211 213 217 215 204 187 190 200 202 204 208 208 208 188 185 184 180 177 165 162 166
289 289 290 286 286 294 297 292 290 292 297 301 305 305 303 300 299 298 295 292 293 290 290 289 285 285 279 270 252 248 242 231 222 225 221 208 204 199 206 205 204 209 209 212 202 192 189 203 206 203 199 201 198 204 188 183 179 177 170 167 166 160
289 286 288 284 287 294 294 288 288 292 297 300 304 306 305 298 296 296 293 291 289 283 282 281 280 278 279 274 263 244 241 233 225 228 234 227 215 207 205 200 213 210 209 201 196 185 193 203 212 212 200 197 195 194 190 180 183 179 169 168 158 147
279 285 286 285 290 295 291 293 291 290 294 299 299 301 295 294 295 293 288 287 286 282 276 270 270 273 274 271 269 265 256 240 238 233 228 237 218 223 224 218 215 210 196 203 209 194 193 202 210 190 194 203 204 205 201 187 179 174 159 164 162 152
286 283 283 286 294 290 290 290 290 291 297 296 292 294 289 287 287 285 285 287 284 285 287 285 282 277 275 277 276 268 263 265 245 241 242 239 231 221 225 227 231 224 208 203 207 207 210 203 184 188 196 201 204 206 204 192 179 169 164 164 154 153
294 291 288 291 293 291 289 288 286 290 297 294 285 281 279 277 278 280 283 283 283 286 282 280 280 281 273 266 261 260 262 258 259 253 239 241 239 236 233 232 232 231 227 219 211 195 203 206 199 189 192 197 201 204 203 196 181 171 168 170 158 156
292 291 291 291 292 292 290 287 285 291 291 284 280 275 273 275 275 275 277 278 280 280 279 276 272 271 269 266 263 258 251 251 250 254 259 235 236 236 234 233 234 233 231 225 221 210 200 197 202 199 195 195 198 201 202 196 181 172 174 166 163 169
290 288 291 292 289 286 285 283 285 291 288 280 275 269 266 270 271 271 272 276 276 275 271 269 266 266 267 262 262 263 260 252 245 248 249 250 233 235 238 237 234 232 230 229 223 217 212 206 202 202 197 196 197 199 199 193 183 177 178 172 171 165
289 287 288 287 286 284 282 280 284 289 282 281 275 274 272 270 270 270 272 276 276 267 263 263 276 290 294 295 286 269 254 248 245 239 241 237 236 229 224 218 225 228 228 226 225 220 214 206 202 198 197 197 197 197 198 191 180 184 183 175 171 167
286 283 284 283 283 280 279 280 285 285 282 279 277 275 275 275 271 270 272 276 277 279 287 288 284 278 270 264 264 269 267 253 239 234 234 235 234 232 229 229 216 213 221 224 223 220 216 208 202 200 198 197 197 197 195 191 189 184 181 172 166 165